Zurück zum Katalog

USA 454

AktivMilitärVLEO
NORAD 62353·PAYLOAD·🇺🇸 United States

Gestartet Dec 17, 2024 von Vandenberg Space Force Base

Loading…

Nächste Überflüge (nächste 24 Stunden)

TLE

VeraltetSource: Mike McCants

Epoche: Aug 21, 2026, 20:19 UTC

1 62353U 24243P   26233.84669245 0.00000000  00000-0  00000-0 0    07
2 62353  70.0190 132.1399 0004000 257.8750 102.1249 14.96713399    05

Verfolge USA 454 in Echtzeit mit AllMySat

Download on the App Store